Location: Unspecified
(51.5147°N, 7.4673°E)
Time: 06:56:31
(UTC+01:00)

Transit 4A - Pass Details

Date: 17 February 2026
Orbit: 863 x 978 km, 66.8° (Epoch: 14 March)

Event Time Altitude Azimuth Distance (km) Brightness Sun altitude
Exits shadow 03:10:48 16° 98° (E) 2,157 10.1 -40.6°
Drops below altitude 10° 03:13:49 10° 67° (ENE) 2,584 10.8 -40.3°
Sets 03:17:19 0° 48° (NE) 3,555 11.8 -39.8°
